TimeEDT,TemperatureF,Dew PointF,Humidity,Sea Level PressureIn,VisibilityMPH,Wind Direction,Wind SpeedMPH,Gust SpeedMPH,PrecipitationIn,Events,Conditions,WindDirDegrees,DateUTC
12:53 AM,57.0,48.9,74,30.20,10.0,Variable,5.8,-,N/A,,Clear,0,2013-05-01 04:53:00
1:53 AM,55.9,48.9,77,30.20,10.0,Variable,3.5,-,N/A,,Clear,0,2013-05-01 05:53:00
2:53 AM,55.9,48.9,77,30.20,10.0,Variable,3.5,-,N/A,,Clear,0,2013-05-01 06:53:00
3:53 AM,55.0,48.9,80,30.21,10.0,Variable,3.5,-,N/A,,Clear,0,2013-05-01 07:53:00
4:53 AM,55.0,48.9,80,30.22,10.0,Variable,4.6,-,N/A,,Clear,0,2013-05-01 08:53:00
5:53 AM,54.0,48.0,80,30.24,10.0,Variable,3.5,-,N/A,,Clear,0,2013-05-01 09:53:00
6:53 AM,54.0,48.0,80,30.27,10.0,SE,5.8,-,N/A,,Clear,130,2013-05-01 10:53:00
7:53 AM,55.0,46.9,74,30.29,10.0,Variable,3.5,-,N/A,,Clear,0,2013-05-01 11:53:00
8:53 AM,59.0,46.9,64,30.30,10.0,Variable,5.8,-,N/A,,Clear,0,2013-05-01 12:53:00
9:53 AM,62.1,46.0,56,30.30,10.0,Variable,4.6,-,N/A,,Clear,0,2013-05-01 13:53:00
10:53 AM,64.0,45.0,50,30.31,10.0,SE,6.9,-,N/A,,Clear,130,2013-05-01 14:53:00
11:53 AM,68.0,46.0,45,30.30,10.0,Variable,5.8,-,N/A,,Clear,0,2013-05-01 15:53:00
12:53 PM,72.0,46.0,40,30.29,10.0,Variable,5.8,-,N/A,,Clear,0,2013-05-01 16:53:00
1:53 PM,73.0,45.0,37,30.28,10.0,Variable,4.6,21.9,N/A,,Clear,0,2013-05-01 17:53:00
2:53 PM,73.9,44.1,34,30.27,10.0,Variable,6.9,-,N/A,,Clear,0,2013-05-01 18:53:00
3:53 PM,75.0,45.0,34,30.27,10.0,Variable,3.5,-,N/A,,Clear,0,2013-05-01 19:53:00
4:53 PM,75.9,46.0,35,30.27,10.0,East,8.1,-,N/A,,Clear,90,2013-05-01 20:53:00
5:53 PM,75.9,45.0,33,30.27,10.0,Variable,5.8,-,N/A,,Clear,0,2013-05-01 21:53:00
6:53 PM,75.0,43.0,32,30.27,10.0,Variable,6.9,-,N/A,,Clear,0,2013-05-01 22:53:00
7:53 PM,73.0,42.1,33,30.28,10.0,Variable,3.5,-,N/A,,Clear,0,2013-05-01 23:53:00
8:53 PM,69.1,41.0,36,30.30,10.0,Variable,3.5,-,N/A,,Clear,0,2013-05-02 00:53:00
9:53 PM,66.9,39.0,36,30.31,10.0,Calm,Calm,-,N/A,,Clear,0,2013-05-02 01:53:00
10:53 PM,66.0,36.0,33,30.31,10.0,Variable,3.5,-,N/A,,Clear,0,2013-05-02 02:53:00
11:53 PM,64.0,35.1,34,30.30,10.0,Calm,Calm,-,N/A,,Clear,0,2013-05-02 03:53:00